Location: Columbia
(38.9520°N, 92.3340°W)
Time: 03:19:01
(UTC-05:00)

Iridium 15 - Visible Passes

Search period start: 23 September 2014 00:00
Search period end: 03 October 2014 00:00
Orbit: 776 x 779 km, 86.4° (Epoch: 22 September)

Date Brightness Start Highest point End Pass type
(mag) Time Alt. Az. Time Alt. Az. Time Alt. Az.
23 Sep 6.1 06:24:09 10° S 06:29:21 87° W 06:34:35 10° N visible
24 Sep 7.1 05:50:54 10° SSE 05:55:54 50° E 06:00:55 10° NNE visible
25 Sep 8.2 05:18:16 10° SE 05:22:34 27° E 05:26:53 10° NNE visible
26 Sep 9.1 04:46:37 10° ESE 04:49:21 15° ENE 04:52:06 10° NE visible
26 Sep 6.1 06:24:22 10° SSW 06:29:29 59° W 06:34:38 10° N visible
27 Sep 6.3 05:50:47 10° S 05:55:57 74° E 06:01:10 10° N visible
28 Sep 7.5 05:17:46 10° SSE 05:22:33 39° E 05:27:22 10° NNE visible
29 Sep 8.5 04:45:26 10° SE 04:49:16 21° E 04:53:06 10° NNE visible
29 Sep 6.4 06:24:47 10° SSW 06:29:39 40° W 06:34:33 10° NNW visible
30 Sep 9.1 04:14:42 10° E 04:16:06 11° ENE 04:17:30 10° ENE visible
30 Sep 5.9 05:50:52 10° S 05:56:03 76° W 06:01:17 10° N visible
01 Oct 6.6 05:17:30 10° SSE 05:22:35 57° E 05:27:41 10° N visible
02 Oct 7.8 04:44:44 10° SE 04:49:13 30° E 04:53:44 10° NNE visible
02 Oct 6.9 06:25:27 10° SW 06:29:52 28° W 06:34:19 10° NNW visible
